Tracking 29068 objects as of 20-Jul-2024
HD Live streaming from Space Station
objects crossing your sky now

STARLINK-6169

Track STARLINK-6169 now!
10-day predictions
STARLINK-6169 is classified as:


NORAD ID: 56889
Int'l Code: 2023-083P
Perigee: 565.3 km
Apogee: 567.1 km
Inclination: 43.0 °
Period: 95.8 minutes
Semi major axis: 6937 km
RCS: Unknown
Launch date: June 12, 2023
Source: United States (US)
Launch site: AIR FORCE EASTERN TEST RANGE (AFETR)
Your satellite tracking list
Your tracking list is empty




NASA's NSSDC Master Catalog

Two Line Element Set (TLE):
1 56889U 23083P   24201.40996825  .00002195  00000-0  17753-3 0  9997
2 56889  43.0016  92.6637 0001297 264.4096  95.6598 15.02539278 61679
Source of the keplerian elements: AFSPC